Location: Arpaise
(41.0333°N, 14.7333°E)
Time: 17:04:54
(UTC+00:00)

Alouette 2 Rocket - Pass Details

Date: 05 July 2020
Orbit: 502 x 2650 km, 79.8° (Epoch: 10 August)

Event Time Altitude Azimuth Distance (km) Brightness Sun altitude
Rises 19:57:01 0° 355° (N) 2,675 7.7 -12.7°
Reaches altitude 10° 19:58:58 10° 1° (N) 1,864 6.7 -12.9°
Maximum altitude 20:02:49 51° 78° (ENE) 849 4.0 -13.4°
Enters shadow 20:06:13 20° 148° (SSE) 1,799 5.3 -13.9°
